Starlink 32255

operational
NORAD ID: 60417 Int'l Des: 2024-141 Owner: SPXS Country: US Constellation: starlink
LEOCIRCULAR

Starlink 32255について

説明を読み込み中...

リアルタイム位置

3D地球を読み込み中...

次回通過

高度履歴

Altitude vs Time

uPlot chart will show altitude changes over time

軌道要素

1 60417U 24141V 26034.41935403 .00000341 00000-0 23655-4 0 9997
2 60417 53.1611 41.7685 0001277 90.1874 269.9273 15.30194459 84331
Epoch: Feb 3, 2026 • Age: 25 hours

現在のステータス

高度 494.6 km
速度 7.62 km/s
衛星直下点 -53.28°S, 8.2°E
打ち上げ日 Aug 10, 2024
運用期間 1.4 years
タイプ internet

技術仕様

分類 Payload
質量 730.00 kg
乾燥質量 700.00 kg
総質量 730.00 kg
長さ 0.30 m
直径 4.10 m
スパン 29.00 m
形状 Box + pan
製造者 SPXS
バスタイプ Starlink V2M
フェーズステータス In Orbit
所有者/国 SPXS/US

大規模コンステレーション

Loading constellations...